This is the latest recevied weather packets stored in our database for station/object N6RDS-8. If no packets are shown the sender has not sent any weather packets the latest 10 day(s).
| Time | Temp. | Humidity | Pressure | Rain* | Wind** | Luminosity | Snow |
|---|---|---|---|---|---|---|---|
| 1778099464 | 24.44° C | 22% | 1018.9 hPa | 0 mm | - | 748 W/m² | - |
| 1778099162 | 23.89° C | 21% | 1019.1 hPa | 0 mm | - | 753 W/m² | - |
| 1778098857 | 22.78° C | 21% | 1019 hPa | 0 mm | - | 757 W/m² | - |
| 1778098555 | 22.78° C | 22% | 1019.4 hPa | 0 mm | - | 761 W/m² | - |
| 1778098252 | 23.89° C | 22% | 1019.1 hPa | 0 mm | - | 765 W/m² | - |
| 1778097948 | 23.33° C | 23% | 1019.1 hPa | 0 mm | - | 768 W/m² | - |
| 1778097645 | 22.78° C | 23% | 1019.1 hPa | 0 mm | - | 771 W/m² | - |
| 1778097341 | 22.78° C | 21% | 1019.4 hPa | 0 mm | - | 772 W/m² | - |
| 1778097038 | 23.33° C | 21% | 1019.4 hPa | 0 mm | - | 777 W/m² | - |
| 1778096736 | 22.78° C | 18% | 1019.4 hPa | 0 mm | - | 778 W/m² | - |
| 1778096432 | 22.22° C | 23% | 1019.4 hPa | 0 mm | - | 778 W/m² | - |
| 1778096129 | 22.22° C | 22% | 1019.4 hPa | 0 mm | - | 777 W/m² | - |
| 1778095826 | 21.67° C | 22% | 1019.5 hPa | 0 mm | - | 779 W/m² | - |
| 1778095523 | 22.78° C | 22% | 1019.7 hPa | 0 mm | - | 779 W/m² | - |
| 1778095219 | 22.78° C | 23% | 1019.7 hPa | 0 mm | - | 779 W/m² | - |
| 1778094916 | 22.22° C | 24% | 1019.6 hPa | 0 mm | - | 777 W/m² | - |
| 1778094612 | 22.78° C | 22% | 1019.7 hPa | 0 mm | - | 775 W/m² | - |
| 1778094309 | 22.78° C | 22% | 1019.9 hPa | 0 mm | - | 774 W/m² | - |
| 1778094006 | 22.78° C | 20% | 1019.8 hPa | 0 mm | - | 773 W/m² | - |
| 1778093703 | 22.22° C | 24% | 1019.8 hPa | 0 mm | - | 769 W/m² | - |
| 1778093400 | 22.78° C | 25% | 1019.8 hPa | 0 mm | - | 766 W/m² | - |
| 1778093097 | 22.78° C | 25% | 1019.9 hPa | 0 mm | - | 763 W/m² | - |
| 1778092794 | 22.78° C | 25% | 1019.8 hPa | 0 mm | - | 759 W/m² | - |
| 1778092489 | 21.67° C | 27% | 1019.9 hPa | 0 mm | - | 755 W/m² | - |
| 1778092182 | 22.22° C | 26% | 1019.9 hPa | 0 mm | - | 749 W/m² | - |
* Rain latest hour (hover to see other rain measurements)
** Current wind speed in m/s (hover to see current wind gust speed)